sat.trackr.live / text

‹ back to catalog

TYVAK-182A

NORAD 48271 · 2021-034D

PAYLOAD ACTIVE UNKNOWN

§ Identity

Operator
Country
IT
Launch date
2021-04-29
Launch site
FRGUI
Launch vehicle
Mass (kg)
RCS (m²)

External: N2YO · Heavens-Above · Gunter

§ Orbital elements

Epoch: 2026-05-25T03:25:13.186272Z

Period
95.62 min
Inclination
97.5737°
Eccentricity
0.0007271
Mean motion
15.05910760 rev/d
Perigee alt
543.7 km
Apogee alt
553.7 km
Semi-major
6,926.8 km
B*
2.9782e-4
RAAN
204.4629°
Arg perigee
60.8068°
Mean anomaly
299.3885°
Rev number
27,636

§ Raw data

TYVAK-182A1 48271U 21034D   26145.14251373  .00004271  00000+0  29782-3 0  99902 48271  97.5737 204.4629 0007271  60.8068 299.3885 15.05910760276366

JSON: /api/v1/satellites/48271 · /tle

For live sub-satellite position, see the globe view (requires WebGL).

§ Visibility from observer

Set your observer location to see the next 7 days of passes ≥ 10°. The values pass through the URL so the page stays shareable.

No JS? Fill the form by hand. The geolocation button needs JavaScript.

§ Radio — SatNOGS DB

ModeDescriptionDownlinkUplink
FM Downlink 401.760 MHz

1 transmitter · refreshed weekly from db.satnogs.org